N2YJJ-2 Weather Reports


Display with metric or nautical units.
time (UTC)temp
F
wind
direction
speed
MPH
gust
MPH
rain 1hr
in
rain 24hr
in
rain mn
in
humidity
%
barometer
mb
20260505214004 51 323 1.0 2.0 0.06 0.06 0.06 88 1013.7
20260505212003 53 300 0.0 7.0 0.01 0.01 0.01 82 1013.3
20260505211002 54 322 1.0 3.0 0.00 0.00 0.00 80 1013.0
20260505210003 56 295 3.0 10.0 0.00 0.00 0.00 76 1012.4
20260505203003 60 335 1.0 5.0 0.00 0.00 0.00 70 1011.3
20260505202003 61 288 2.0 7.0 0.00 0.00 0.00 69 1011.1
20260505201003 62 285 2.0 5.0 0.00 0.00 0.00 72 1011.0
20260505200003 62 329 1.0 3.0 0.00 0.00 0.00 69 1010.5
20260505195003 63 281 2.0 3.0 0.00 0.00 0.00 70 1010.5
20260505193004 63 245 1.0 3.0 0.00 0.00 0.00 72 1010.3
20260505190003 66 267 1.0 5.0 0.00 0.00 0.00 69 1010.3
20260505185003 66 315 2.0 5.0 0.00 0.00 0.00 68 1010.1
20260505184003 66 36 3.0 6.0 0.00 0.00 0.00 71 1010.0
20260505183003 66 271 1.0 5.0 0.00 0.00 0.00 71 1010.1
20260505182003 65 298 1.0 5.0 0.00 0.00 0.00 71 1009.9
20260505181003 64 279 1.0 5.0 0.00 0.00 0.00 72 1009.9
20260505180003 65 321 2.0 5.0 0.00 0.00 0.00 72 1009.7
20260505175003 65 310 2.0 3.0 0.00 0.00 0.00 73 1009.3
20260505173003 68 314 3.0 14.0 0.00 0.00 0.00 67 1009.2
20260505172004 69 242 7.0 18.0 0.00 0.00 0.00 65 1008.9
20260505171003 69 246 7.0 17.0 0.00 0.00 0.00 65 1008.9
20260505170003 70 241 6.0 14.0 0.00 0.00 0.00 65 1008.7
20260505165004 71 253 6.0 16.0 0.00 0.00 0.00 63 1008.7
20260505164003 70 236 7.0 17.0 0.00 0.00 0.00 63 1008.6
20260505163004 70 238 5.0 14.0 0.00 0.00 0.00 65 1008.4
20260505162003 70 230 5.0 17.0 0.00 0.00 0.00 66 1008.3
20260505161003 70 245 7.0 14.0 0.00 0.00 0.00 64 1008.3
20260505153003 70 230 5.0 15.0 0.00 0.00 0.00 65 1008.3
20260505152003 69 238 6.0 14.0 0.00 0.00 0.00 66 1008.0
20260505151004 68 251 5.0 13.0 0.00 0.00 0.00 67 1007.7
20260505123004 65 202 3.0 8.0 0.00 0.00 0.00 75 1006.7
20260505122004 65 227 2.0 6.0 0.00 0.00 0.00 73 1006.8
20260505121004 65 207 3.0 9.0 0.00 0.00 0.00 73 1006.7
20260505120002 65 223 4.0 8.0 0.00 0.00 0.00 74 1006.5
20260505115002 64 235 2.0 12.0 0.00 0.00 0.00 75 1006.4
20260505114002 64 213 3.0 9.0 0.00 0.00 0.00 77 1006.4
20260505113002 63 222 3.0 8.0 0.00 0.00 0.00 78 1006.3
20260505111001 63 230 2.0 6.0 0.00 0.00 0.00 79 1006.0
20260505102001 61 218 2.0 9.0 0.00 0.00 0.00 80 1005.2
20260505101001 61 239 3.0 12.0 0.00 0.00 0.00 82 1005.2
20260505100002 60 234 3.0 12.0 0.00 0.00 0.00 83 1005.0
20260505095001 60 241 2.0 7.0 0.00 0.00 0.00 84 1005.1
20260505094002 59 242 3.0 9.0 0.00 0.00 0.00 86 1004.9
20260505093001 58 193 1.0 9.0 0.00 0.00 0.00 87 1004.9
20260505092002 58 213 1.0 3.0 0.00 0.00 0.00 87 1004.8
20260505091001 58 211 1.0 5.0 0.00 0.00 0.00 87 1004.7
20260505090001 58 204 2.0 6.0 0.00 0.00 0.00 87 1005.0
20260505085002 58 228 4.0 14.0 0.00 0.00 0.00 88 1005.1
20260505084002 58 176 2.0 9.0 0.00 0.00 0.00 88 1005.3
20260505083002 57 188 2.0 5.0 0.00 0.00 0.00 88 1005.3
20260505081002 58 180 3.0 8.0 0.00 0.00 0.00 88 1005.5
20260505080003 58 190 2.0 10.0 0.00 0.00 0.00 87 1005.4
20260505075002 59 233 1.0 3.0 0.00 0.00 0.00 86 1005.4
20260505074002 59 219 2.0 14.0 0.00 0.00 0.00 86 1005.5
20260505073003 60 187 2.0 8.0 0.00 0.00 0.00 85 1005.5
20260505071002 60 200 1.0 9.0 0.00 0.00 0.00 83 1005.5
20260505070002 60 233 2.0 8.0 0.00 0.00 0.00 84 1005.5
20260505064002 61 196 5.0 10.0 0.00 0.00 0.00 81 1006.5
20260505062003 62 231 3.0 12.0 0.00 0.00 0.00 79 1006.7
20260505061002 62 231 6.0 14.0 0.00 0.00 0.00 76 1006.6
20260505060003 63 226 4.0 12.0 0.00 0.00 0.00 74 1006.4
20260505055002 64 201 3.0 9.0 0.00 0.00 0.00 71 1006.7
20260505054002 64 240 4.0 10.0 0.00 0.00 0.00 70 1006.5
20260505053003 65 238 5.0 9.0 0.00 0.00 0.00 69 1006.6
20260505052003 65 220 4.0 15.0 0.00 0.00 0.00 69 1006.6
20260505051002 65 208 5.0 16.0 0.00 0.00 0.00 69 1006.5
20260505041003 62 219 3.0 8.0 0.00 0.00 0.00 71 1006.4
20260505040004 61 200 2.0 5.0 0.00 0.00 0.00 70 1006.3
20260505034002 62 173 2.0 9.0 0.00 0.00 0.00 68 1006.5
20260505033002 62 200 1.0 7.0 0.00 0.00 0.00 67 1006.7
20260505032003 62 202 2.0 6.0 0.00 0.00 0.00 66 1007.0
20260505030002 62 203 3.0 9.0 0.00 0.00 0.00 62 1007.3
20260505025002 61 214 3.0 7.0 0.00 0.00 0.00 64 1007.2
20260505024002 60 207 2.0 5.0 0.00 0.00 0.00 65 1007.2
20260505023002 59 192 2.0 5.0 0.00 0.00 0.00 68 1007.1
20260505022002 59 191 2.0 5.0 0.00 0.00 0.00 69 1007.1
20260505021003 58 159 1.0 3.0 0.00 0.00 0.00 71 1007.1
20260505020002 58 157 1.0 2.0 0.00 0.00 0.00 72 1007.1
20260505015002 58 200 0.0 0.0 0.00 0.00 0.00 71 1007.1
20260505014003 59 200 0.0 2.0 0.00 0.00 0.00 71 1007.1
20260505013003 59 200 1.0 2.0 0.00 0.00 0.00 70 1007.2
20260505012002 60 200 1.0 1.0 0.00 0.00 0.00 70 1007.3
20260505011002 61 200 0.0 0.0 0.00 0.00 0.00 69 1007.2
20260505010002 62 200 0.0 2.0 0.00 0.00 0.00 66 1007.1
20260505005002 63 200 1.0 2.0 0.00 0.00 0.00 65 1007.0
20260505003002 65 200 1.0 2.0 0.00 0.00 0.00 60 1007.0
20260505001003 66 171 1.0 3.0 0.00 0.01 0.00 56 1007.1
20260504235002 68 223 1.0 3.0 0.00 0.01 0.00 54 1007.1
20260504234002 69 204 2.0 3.0 0.00 0.01 0.00 52 1007.2
20260504233003 69 258 2.0 7.0 0.00 0.01 0.00 50 1007.2
20260504232003 70 247 2.0 5.0 0.00 0.01 0.00 49 1007.3
20260504231002 70 245 3.0 9.0 0.00 0.01 0.00 46 1007.3
20260504230002 70 219 2.0 7.0 0.00 0.02 0.00 46 1007.3
20260504225002 71 236 2.0 10.0 0.00 0.02 0.00 46 1007.3
20260504224002 71 242 3.0 10.0 0.00 0.02 0.00 43 1007.4
20260504223003 72 232 3.0 10.0 0.00 0.03 0.00 41 1007.3
20260504222002 72 241 3.0 12.0 0.00 0.03 0.00 41 1007.4
20260504221004 72 300 2.0 12.0 0.00 0.03 0.00 47 1007.5
20260504215003 73 229 6.0 14.0 0.00 0.03 0.00 40 1007.6